Location: Darlington Observatory
(36.4817°N, 105.8156°W)
Time: 14:09:42
(UTC-06:00)

NOSS 3-3 (A) - Visible Passes

Search period start: 21 September 2014 00:00
Search period end: 01 October 2014 00:00
Orbit: 974 x 1239 km, 63.4° (Epoch: 16 September)

Date Brightness Start Highest point End Pass type
(mag) Time Alt. Az. Time Alt. Az. Time Alt. Az.
21 Sep 6.7 22:55:00 10° N 22:56:42 12° NNE 22:56:42 12° NNE visible
22 Sep 6.8 00:43:26 10° NNW 00:44:07 13° NNW 00:44:07 13° NNW visible
22 Sep 6.6 23:59:09 10° NNW 00:00:32 15° N 00:00:32 15° N visible
23 Sep 6.5 23:15:01 10° N 23:17:00 16° N 23:17:00 16° N visible
24 Sep 6.5 22:31:10 10° N 22:33:30 14° NNE 22:33:30 14° NNE visible
25 Sep 6.8 00:20:19 10° NNW 00:20:55 13° NNW 00:20:55 13° NNW visible
25 Sep 6.5 21:48:34 10° NNE 21:49:27 10° NNE 21:50:01 10° NNE visible
25 Sep 6.6 23:35:56 10° NNW 23:37:26 17° N 23:37:26 17° N visible
26 Sep 6.4 22:51:42 10° NNW 22:54:00 18° N 22:54:00 18° N visible
27 Sep 6.3 22:07:39 10° N 22:10:34 17° NNE 22:10:34 17° NNE visible
27 Sep 6.8 23:57:14 10° NNW 23:58:00 14° NNW 23:58:00 14° NNW visible
28 Sep 6.3 21:24:00 10° N 21:27:02 13° NNE 21:27:11 13° NNE visible
28 Sep 6.4 23:12:46 10° NNW 23:14:37 19° NNW 23:14:37 19° NNW visible
29 Sep 6.1 22:28:26 10° NNW 22:31:15 22° N 22:31:15 22° N visible
30 Sep 6.0 21:44:16 10° N 21:47:55 21° NNE 21:47:55 21° NNE visible
30 Sep 6.7 23:34:14 10° NNW 23:35:21 16° NNW 23:35:21 16° NNW visible
